Flag for Argentina Weather past 2 weeks in Buenos Aires, Argentina

Now
70 °F

Sunny.


Feels Like: 70 °F
Forecast: 63 / 77 °F
Wind: 15 mph from South

Location: Buenos Aires Airport

Current Time: Jan 29, 2015 at 12:17:43 PM

Latest Report: Jan 29, 2015 at 11:00 AM


Visibility: 10 mi

Pressure: 30.12 "Hg

Humidity: 53%

Dew point: 52 °F

Location of Buenos AiresLocation

Historic Weather in Buenos Aires — Graph

°F

Buenos Aires temperature yesterday

Maximum temperature yesterday: 82 °F (at 12:00 AM)
Minimum temperature yesterday: 66 °F (at 11:00 PM)
Average temperature yesterday: 73 °F

Past Weeks' High & Low Weather Summary

 TemperatureHumidityPressure
High91 °F (Jan 27, 2:00 PM)100% (Jan 27, 4:00 AM)30.21 "Hg (Jan 27, 4:00 AM)
Low61 °F (Jan 20, 6:00 AM)40% (Jan 25, 12:00 PM)29.65 "Hg (Jan 27, 5:00 PM)
Average75 °F72%29.94 "Hg
* Reported Jan 14 11:00 AM — Jan 29 11:00 AM, Buenos Aires, Weather by CustomWeather, © 2014

Note: Actual official high and low records may vary slightly from our data, if they occured in-between our weather recording intervals... More about our weather records

Advertising

Buenos Aires weather history for previous 24 hours

 ConditionsComfort  
Time TempWeatherWind HumidityBarometerVisibility
11:00 AM
Jan 29
70 °FSunny.15 mph53%30.12 "Hg10 mi
10:00 AM66 °FSunny.16 mph60%30.09 "Hg10 mi
9:00 AM64 °FSunny.23 mph64%30.09 "Hg10 mi
8:00 AM63 °FSunny.18 mph64%30.04 "Hg10 mi
7:00 AM63 °FSunny.16 mph68%30.04 "Hg10 mi
6:00 AM61 °FSunny.17 mph77%30.04 "Hg10 mi
5:00 AM61 °FClear.17 mph77%30.01 "Hg10 mi
4:00 AM61 °FClear.18 mph77%30.01 "Hg10 mi
3:00 AM63 °FClear.20 mph73%30.01 "Hg10 mi
2:00 AM64 °FClear.15 mph68%30.01 "Hg10 mi
1:00 AM64 °FClear.22 mph68%29.98 "Hg10 mi
12:00 AM66 °FClear.17 mph60%29.98 "Hg10 mi
11:00 PM
Jan 28
66 °FPassing clouds.17 mph60%29.98 "HgN/A
10:00 PM68 °FPassing clouds.20 mph60%29.95 "HgN/A
9:00 PM70 °FClear.20 mph69%29.89 "Hg10 mi
8:00 PM70 °FPassing clouds.22 mph73%29.86 "HgN/A
7:00 PM72 °FScattered clouds.18 mph73%29.83 "HgN/A
6:00 PM72 °FMore clouds than sun.18 mph73%29.83 "HgN/A
5:00 PM73 °FMostly cloudy.17 mph74%29.80 "HgN/A
4:00 PM72 °FMore clouds than sun.9 mph78%29.77 "HgN/A
3:00 PM72 °FLight rain. Mostly cloudy.14 mph83%29.80 "Hg5 mi
2:00 PM70 °FLight rain. More clouds than sun.13 mph83%29.83 "Hg3 mi
1:00 PM68 °FThunderstorms. More clouds than sun.7 mph94%29.89 "Hg1 mi
12:00 PM68 °FThunderstorms. More clouds than sun.14 mph94%29.86 "Hg1 mi
Weather by CustomWeather, © 2014

See weather overviewHow to use our weather pages